Hourly Data Report for September 18, 2017

All times are specified in Local Standard Time (LST). Add 1 hour to adjust for Daylight Saving Time where and when it is observed.

CLYDE RIVER A
NUNAVUT

70°29'09.000" N
68°31'01.000" W
26.50 m
2400804
71090
YCY

Related Data

No related data is available for this station

Download Data

Hourly Data (September 2017)
Hourly Data Report for September 18, 2017
Temp Definition
°C
Dew Point Temp Definition
°C
Rel Hum Definition
%
Wind Dir Definition
10's deg

Wind Spd Definition
km/h
Visibility Definition
km
Stn Press Definition
kPa
Hmdx Definition


Wind Chill Definition


Weather Definition


TIME
00:00 Legend Double Dagger 2.7 -3.4 64 22 13 16.1 100.85     LegendNANA
01:00 Legend Double Dagger 2.6 -2.8 68 21 17 16.1 100.82     LegendNANA
02:00 Legend Double Dagger 2.6 -2.3 70 21 15 16.1 100.82     LegendNANA
03:00 Legend Double Dagger 2.3 -2.0 73   0 16.1 100.78     LegendNANA
04:00 Legend Double Dagger 2.3 -1.9 74 22 5 16.1 100.72     LegendNANA
05:00 Legend Double Dagger 2.3 -1.5 76 22 17 16.1 100.70     LegendNANA
06:00 Legend Double Dagger 3.0 -1.9 70 21 15 16.1 100.65     LegendNANA
07:00 Legend Double Dagger 3.5 -1.5 70 20 11 16.1 100.62     LegendNANA
08:00 Legend Double Dagger 3.6 -0.1 77 26 18 16.1 100.58     Rain
09:00 Legend Double Dagger 4.1 0.3 76 20 21 16.1 100.57     Rain
10:00 Legend Double Dagger 5.0 0.4 72 22 28 16.1 100.50     LegendNANA
11:00 Legend Double Dagger 5.1 1.0 75 22 24 16.1 100.45     LegendNANA
12:00 Legend Double Dagger 5.9 1.7 74 25 13 16.1 100.44     LegendNANA
13:00 Legend Double Dagger 6.1 2.0 75 20 9 16.1 100.44     Rain
14:00 Legend Double Dagger 5.6 2.0 78 23 18 16.1 100.40     LegendNANA
15:00 Legend Double Dagger 4.2 1.9 85 2 8 16.1 100.43     LegendNANA
16:00 Legend Double Dagger 3.3 1.8 90 30 5 16.1 100.50     LegendNANA
17:00 Legend Double Dagger 2.3 1.4 94 32 17 16.1 100.58     LegendNANA
18:00 Legend Double Dagger 2.6 1.3 91 31 9 16.1 100.65     LegendNANA
19:00 Legend Double Dagger 1.9 1.0 94 32 26 12.9 100.71     Rain
20:00 Legend Double Dagger 1.5 0.8 95 32 24 16.1 100.77     LegendNANA
21:00 Legend Double Dagger 1.2 0.5 95 32 28 16.1 100.79     Rain
22:00 Legend Double Dagger 1.0 0.3 95 33 24 16.1 100.83     Rain
23:00 Legend Double Dagger 0.9 0.2 95 32 22 16.1 100.89     Rain

Notes on Data Quality.

Legend

  • E = Estimated
  • M = Missing
  • NA = Not Available
  • ‡ = Partner data that is not subject to review by the National Climate Archives
Date modified: